Regional Weather Roundup
Issued by NWS

Home | Current Version | Previous Version | Text Only | Print | Product List | Glossary On
Versions: 1 2 3 4 5 6 7 8 9 10 11 12 13 14 15 16 17 18 19 20 21 22 23 24 25 26 27 28 29 30 31 32 33 34 35 36 37 38 39 40 41 42 43 44 45 46 47 48 49 50
000
ASUS43 KDTX 271710
RWRMI
MICHIGAN HOURLY REGIONAL WEATHER ROUNDUP
NATIONAL WEATHER SERVICE DETROIT/PONTIAC MI
1200 PM EST FRI FEB 27 2015

NOTE: "FAIR" INDICATES FEW OR NO CLOUDS BELOW 12,000 FEET WITH NO
SIGNIFICANT WEATHER AND/OR OBSTRUCTION TO VISIBILITY.

MIZ047>049-052>055-059>063-066>070-074>076-081>083-271800-
SOUTHEAST LOWER MICHIGAN

CITY           SKY/WX    TMP DP  RH WIND       PRES   REMARKS
ADRIAN         SUNNY      9  -6  50 SW3       30.57R
ALMA           MOSUNNY   10  -4  52 SW6       30.54S WCI   1
ANN ARBOR      SUNNY     10  -2  58 SW5       30.55R WCI   2
BAD AXE        SUNNY      7  -4  58 SW9       30.52S WCI  -6
CARO           SUNNY     11  -4  49 W7        30.53R WCI   1
DETROIT CITY   SUNNY     13  -1  54 W6        30.56R WCI   4
DETROIT        SUNNY     14   0  53 W5        30.57R WCI   6
FLINT          SUNNY     12  -5  46 SW7       30.54R WCI   1
GROSSE ILE     SUNNY     12   1  62 SW7       30.56R WCI   2
HILLSDALE      SUNNY     13  -8  38 CALM      30.51R
HOWELL         SUNNY     10  -7  45 CALM      30.52S

CITY           SKY/WX    TMP DP  RH WIND       PRES   REMARKS
JACKSON        SUNNY     11  -9  40 CALM      30.53R
LAMBERTVILLE   SUNNY     14   0  52 CALM      30.58R
LANSING        CLOUDY    13  -4  46 W7        30.55R WCI   3
LAPEER         FAIR      12  -5  47 W3        30.52S
MASON          SUNNY     11  -7  44 CALM      30.53R
MONROE         SUNNY     10   0  61 W6        30.56R WCI   1
MT. CLEMENS    MOSUNNY   11   2  66 S7        30.53R WCI   0
PONTIAC        SUNNY     13  -1  54 N5        30.51R WCI   5
PORT HOPE        N/A      8  -5  55 SW9       30.51R WCI  -5
PORT HURON     SUNNY     12  -2  52 W8        30.55R WCI   1
TRI CITIES     SUNNY     11  -4  51 SW9       30.54R WCI  -2
TROY           SUNNY     15  -1  48 CALM      30.56R
SAGINAW HB     SUNNY     12  -2  52 SW12      30.55R WCI  -2
$$
MIZ043>046-050>051-056>058-064>065-071>073-077>080-271800-
SOUTHWEST LOWER MICHIGAN

CITY           SKY/WX    TMP DP  RH WIND       PRES   REMARKS
BATTLE CREEK   SUNNY     12  -7  42 S9        30.55R WCI   0
BENTON HARBOR  MOSUNNY   14   2  58 S6        30.58R WCI   5
BIG RAPIDS     PTSUNNY   12   2  65 SW7       30.49S WCI   2
COLDWATER      SUNNY     11 -10  39 SW5       30.55R WCI   2
FREMONT        CLOUDY    12   2  65 S3        30.53R HAZE
HOLLAND        MOSUNNY   17   5  59 SW12      30.56R WCI   4
GRAND RAPIDS   MOSUNNY   11  -5  48 SW9       30.55R WCI  -2
IONIA          FAIR      13  -4  46 SW8       30.54R WCI   1
KALAMAZOO      SUNNY     13  -4  46 SW10      30.56R WCI   0
LUDINGTON      MOSUNNY   17   2  53 W8        30.54R WCI   6
MARSHALL       SUNNY     12  -7  42 W6        30.54R WCI   3
MOUNT PLEASANT PTSUNNY   13  -1  53 SW7       30.52R WCI   2
MUSKEGON       LGT SNOW  16   8  71 SW9       30.56R WCI   4
SOUTH HAVEN    CLOUDY    16   1  53 SW7       30.57R WCI   6
$$
MIZ016>042-271800-
NORTHERN LOWER MICHIGAN

CITY           SKY/WX    TMP DP  RH WIND       PRES   REMARKS
ALPENA         MIX PCPN  13  -2  51 SW9       30.46S WCI   1
BEAVER ISLAND  SUNNY     10   2  68 W13       30.47R WCI  -5
BELLAIRE       SUNNY     14   2  59 SW7       30.50R WCI   3
CADILLAC       PTSUNNY   11   0  60 W13       30.42R WCI  -4
CHARLEVOIX     SUNNY     10   3  72 W14       30.51R WCI  -6
FRANKFORT      CLOUDY    14   4  64 W7        30.51R WCI   4
GAYLORD        MOSUNNY    9   0  67 W16       30.40R WCI  -8
GRAYLING       MOSUNNY   13   1  57 SW8       30.43R WCI   2
HARBOR SPRINGS PTSUNNY   10   1  66 W9G16     30.46S WCI  -3
HOUGHTON LAKE  SUNNY     11   0  61 W9        30.45S WCI  -2
MANISTEE       CLOUDY    14   0  52 SW10      30.52R WCI   1
OSCODA         SUNNY     13   0  55 W13       30.48S WCI  -1
PELLSTON       SUNNY     11   0  61 SW15G21   30.46R WCI  -5
ROGERS CITY    SUNNY     12   2  62 SW14      30.46S WCI  -3
TRAVERSE CITY  PTSUNNY   14   3  61 W9        30.48R WCI   2
$$
MIZ007>008-015-271800-
EASTERN UPPER MICHIGAN

CITY           SKY/WX    TMP DP  RH WIND       PRES   REMARKS
KINROSS        SUNNY     14   1  57 W7G16     30.42R WCI   4
MACKINAC ISLAN SUNNY      7   0  73 SW7       30.45R WCI  -5
NEWBERRY       SUNNY     10   0  64 SW9       30.41S WCI  -4
S. S. MARIE    SUNNY     11  -2  56 W12       30.42R WCI  -3
MUNISING         N/A     10  -3  55 NE7       30.44S WCI  -1
$$
MIZ004>006-011>014-085-271800-
CENTRAL UPPER MICHIGAN

CITY           SKY/WX    TMP DP  RH WIND       PRES   REMARKS
MANISTIQUE     SUNNY     11  -4  50 W8        30.44S WCI   0
ESCANABA       SUNNY     10 -11  37 W12       30.47S WCI  -4
MENOMINEE      SUNNY     10  -6  48 W9G17     30.47F WCI  -2
SAWYER-GWINN   SUNNY     10  -6  48 W8        30.36S WCI  -1
$$
MIZ001>003-009>011-084-271800-
WESTERN UPPER MICHIGAN

CITY           SKY/WX    TMP DP  RH WIND       PRES   REMARKS
IRON MOUNTAIN  SUNNY      9  -6  50 W8        30.39S WCI  -3
HOUGHTON       SUNNY      8  -4  58 W16       30.36S WCI -10
COPPER HARBOR    N/A     13  -1  54 NW10G22   30.37F WCI   0
IRONWOOD       SUNNY      7  -8  51 W17       30.38S WCI -12
$$

ABBREVIATIONS USED IN REMARKS
   TC - TEMPERATURE IN CELSIUS
  WCI - WIND CHILL INDEX
   HX - HEAT INDEX
  VSB - VISIBILITY




USA.gov is the U.S. government's official web portal to all federal, state and local government web resources and services.